#timestamp,LO_Frequency,Hit,StdDev 
1598360415.2,286047002.2,N
1598360435.0,286047001.9,N
1598360436.0,286047001.9,N
1598360455.8,286047002.6,N
1598360475.6,286047002.2,N
1598360495.5,286046999.7,N
1598360515.3,286047002.8,N
1598360535.1,286046999.8,N
1598360555.9,286047000.7,N
1598360575.7,286047001.2,N
1598360595.6,286046998.1,N
1598360615.4,286046998.1,N
1598360635.2,286046998.6,N
1598360655.1,286046999.3,N
1598360656.0,286046999.3,N
1598360675.8,286046999.3,N
1598360695.6,286047000.6,N
1598360715.5,286047000.2,N
1598360735.3,286047000.5,N
1598360755.2,286046998.3,N
1598360775.9,286046999.3,N
1598360795.7,286046996.9,N
1598360815.6,286046997.1,N
1598360835.4,286046997.3,N
1598360855.2,286046994.9,N
1598360875.1,286046997.2,N
1598360876.0,286046997.2,N
1598360895.8,286046996.7,N
1598360915.7,286046999.4,N
1598360935.5,286046998.4,N
1598360955.3,286046998.7,N
1598360975.2,286046998.7,N
1598360995.0,286046998.6,N
1598360995.9,286046998.6,N
1598361015.8,286046998.6,N
1598361035.6,286046999.3,N
1598361055.4,286046997.0,N
1598361075.3,286046995.0,Y
1598361095.1,286046997.0,P
1598361115.8,286046997.7,N
1598361135.7,286046997.4,P
1598361155.5,286046997.3,Y
1598361175.4,286047000.7,P
1598361195.2,286047000.2,N
1598361215.0,286047002.7,N
1598361215.9,286047002.7,N
1598361235.8,286047000.4,N
1598361255.6,286047002.2,N
1598361275.5,286047000.1,N
1598361295.3,286047001.6,N
1598361315.1,286047002.4,N
1598361335.9,286047000.2,N
1598361355.7,286047002.7,N
1598361375.5,286047002.2,N
1598361395.4,286047002.0,N
1598361415.2,286046999.9,N
1598361435.1,286046998.1,N
1598361436.0,286046998.1,N
1598361455.8,286047001.0,N
1598361475.6,286047000.0,N
1598361495.5,286047000.4,N
1598361515.3,286047000.3,N
1598361535.1,286047001.0,N
1598361555.9,286046998.6,N
1598361575.7,286046998.3,N
1598361595.6,286046998.9,N
1598361615.4,286046998.8,N
1598361635.2,286046998.7,N
1598361655.1,286046998.5,N
1598361656.0,286046998.5,N
1598361675.8,286047000.4,N
1598361695.6,286046998.2,N
1598361715.5,286047001.2,N
1598361735.3,286046998.3,N
1598361755.2,286046998.2,N
1598361775.9,286046999.5,N
1598361795.7,286046999.2,N
1598361815.6,286046999.3,N
1598361835.4,286047000.8,N
1598361855.2,286047000.5,N
1598361875.1,286047000.6,N
1598361876.0,286047000.6,N
1598361895.8,286047000.4,N
1598361915.7,286047000.5,N
1598361935.5,286047000.0,N
1598361955.3,286047000.0,N
1598361975.2,286047000.5,N
1598361995.0,286047000.0,N
1598361995.9,286047000.0,N
1598362015.8,286047002.4,N
1598362035.6,286047002.6,N
1598362055.4,286047002.3,N
1598362075.3,286046999.8,N
1598362095.1,286047002.1,N
1598362115.8,286047002.8,N
1598362135.7,286047001.6,N
1598362155.5,286047003.8,N
1598362175.4,286047001.7,N
1598362195.2,286047004.2,N
1598362215.0,286047004.2,N
1598362215.9,286047004.2,N
1598362235.8,286047003.1,N
1598362255.6,286047003.5,N
1598362275.5,286047002.0,N
1598362295.3,286047004.2,N
1598362315.1,286047001.8,N
1598362335.9,286047001.6,N
1598362355.7,286047002.2,N
1598362375.5,286046999.9,N
1598362395.4,286047001.9,N
1598362415.2,286046999.9,N
1598362435.1,286047000.3,N
1598362436.0,286047000.3,N
1598362455.8,286047001.7,N
1598362475.6,286047003.9,N
1598362495.5,286047002.1,N
1598362515.3,286047001.8,N
1598362535.2,286047001.6,N
1598362555.9,286047002.6,N
1598362575.7,286047002.4,N
1598362595.6,286047000.2,N
1598362615.4,286047002.4,N
1598362635.2,286047001.9,N
1598362655.1,286047001.7,N
1598362656.0,286047001.7,N
1598362675.8,286047000.0,N
1598362695.7,286047001.0,N
1598362715.5,286047000.8,N
1598362735.3,286047000.7,N
1598362755.2,286046998.3,N
1598362775.0,286046996.9,N
1598362775.9,286046996.9,N
1598362795.8,286046998.8,N
1598362815.6,286046998.9,N
1598362835.4,286047000.9,N
1598362855.3,286046999.6,N
1598362875.1,286046999.3,N
1598362895.8,286046998.6,N
1598362915.7,286046998.8,N
1598362935.5,286047001.0,N
1598362955.4,286047000.0,N
1598362975.2,286047001.2,N
1598362995.0,286046998.5,N
1598362995.9,286046998.5,N
1598363015.8,286046998.2,N
1598363035.6,286046998.3,N
1598363055.4,286047001.2,N
1598363075.3,286047000.9,N
1598363095.1,286047000.9,N
1598363115.9,286046998.1,N
1598363135.7,286047000.9,N
1598363155.5,286047001.0,N
1598363175.4,286047000.0,N
1598363195.2,286046998.7,N
1598363215.1,286046998.2,N
1598363216.0,286046998.2,N
1598363235.8,286046998.5,N
1598363255.6,286046999.6,N
1598363275.5,286046999.2,N
1598363295.3,286046996.9,N
1598363315.2,286046996.8,N
1598363335.9,286046996.9,N
1598363355.7,286046997.0,N
1598363375.6,286046998.9,N
1598363395.4,286046998.9,N
1598363415.2,286046998.8,N
1598363435.1,286046996.5,N
1598363436.0,286046996.5,N
1598363455.8,286046999.2,N
1598363475.7,286046996.5,N
1598363495.5,286046999.3,N
1598363515.3,286046996.9,N
1598363535.2,286046996.6,N
1598363555.0,286046997.9,N
1598363555.9,286046997.9,N
1598363575.7,286046997.5,N
1598363595.6,286046994.9,Y
1598363615.4,286047000.9,P
1598363635.3,286046998.6,N
1598363655.1,286047000.4,N
1598363656.0,286047000.4,N
1598363675.8,286046999.9,N
1598363695.7,286047000.8,N
1598363715.5,286047000.8,N
1598363735.4,286047001.0,N
1598363755.2,286047000.4,N
1598363775.0,286046998.6,N
1598363775.9,286046998.6,N
1598363795.8,286046996.5,Y
1598363815.6,286046997.1,P
1598363835.4,286046996.6,N
1598363855.3,286046996.7,N
1598363875.1,286046998.9,N
1598363895.9,286047000.7,N
1598363915.7,286047001.0,N
1598363935.5,286047000.9,N
1598363955.4,286047002.4,N
1598363975.2,286046999.7,N
1598363995.0,286046999.8,N
1598363996.0,286046999.8,N
